Terug naar catalogus

STARLINK-33666

ActiefCommunicatieVLEO
NORAD 63592·PAYLOAD·🇺🇸 United States

Gelanceerd Apr 14, 2025 vanaf Cape Canaveral Space Force Station

Loading…

Volgende Passages (komende 24 uur)

TLE

VersSource: CelesTrak SupGP

Epoch: Sep 14, 2026, 20:55 UTC

1 63592C 25076Z   26257.87201389 -.00025731  00000+0 -93296-3 0  2573
2 63592  43.0020 333.4578 0001814 257.0057  24.1172 15.27555379    16

Volg STARLINK-33666 in realtime met AllMySat

Download on the App Store